Overview Statistics Trail Chart Weather Telemetry Raw packets
 

This is the latest recevied weather packets stored in our database for station/object KE6JJJ-1. If no packets are shown the sender has not sent any weather packets the latest 10 day(s).

<< 9 10 11 12 13 14 15 >>
Time Temp. Humidity Pressure Rain* Wind** Luminosity Snow
1788197704 15.56° C 86% 1014.4 hPa 0 mm - 213 W/m² -
1788195903 15.56° C 86% 1014.2 hPa 0 mm - 149 W/m² -
1788192303 15.56° C 87% 1013.8 hPa 0 mm - 63 W/m² -
1788190506 15° C 87% 1013.9 hPa 0 mm - 49 W/m² -
1788188704 15° C 87% 1013.7 hPa 0 mm - 35 W/m² -
1788186903 15° C 86% 1013.4 hPa 0 mm - 21 W/m² -
1788185103 15° C 86% 1012.8 hPa 0 mm - 3 W/m² -
1788181503 15° C 85% 1012.7 hPa 0 mm - 0 W/m² -
1788179703 15° C 84% 1012.6 hPa 0 mm - 0 W/m² -
1788177903 15° C 84% 1012.5 hPa 0 mm - 0 W/m² -
1788176104 15° C 84% 1012.2 hPa 0 mm - 0 W/m² -
1788174303 15° C 84% 1012.4 hPa 0 mm - 0 W/m² -
1788170704 15° C 84% 1012.3 hPa 0 mm - 0 W/m² -
1788167256 15° C 84% 1012.1 hPa 0 mm - 0 W/m² -
1788167103 15° C 84% 1012.1 hPa 0 mm - 0 W/m² -
1788165303 15° C 84% 1012.3 hPa 0 mm - 0 W/m² -
1788163503 15° C 85% 1012.5 hPa 0 mm - 0 W/m² -
1788161704 15° C 85% 1012.4 hPa 0 mm - 0 W/m² -
1788159903 15° C 85% 1012.5 hPa 0 mm - 0 W/m² -
1788156303 15° C 86% 1012.6 hPa 0 mm - 0 W/m² -
1788154503 15° C 86% 1012.4 hPa 0 mm - 0 W/m² -
1788152703 15° C 86% 1012.5 hPa 0 mm - 0 W/m² -
1788149106 14.44° C 87% 1012.2 hPa 0 mm - 0 W/m² -
1788147307 14.44° C 87% 1012 hPa 0 mm - 0 W/m² -
1788145503 14.44° C 87% 1011.7 hPa 0 mm - 0 W/m² -

* Rain latest hour (hover to see other rain measurements)
** Current wind speed in m/s (hover to see current wind gust speed)